Clinton-Sherman, OK

10:02 AM CDT on July 20, 2017 (GMT -0500)
Clinton-Sherman

Weather History for KCSM - March, 2013

Change the Weather History Date:

Saturday, March 9, 2013

  Actual Average Record
Temperature  
Mean Temperature 57 °F -  
Max Temperature 68 °F 56 °F 82 °F (2017)
Min Temperature 43 °F 33 °F 19 °F (1998)
Degree Days  
Heating Degree Days 8    
Growing Degree Days 7 (Base 50)    
Moisture  
Dew Point 48 °F    
Average Humidity 75    
Maximum Humidity 100    
Minimum Humidity 30    
Precipitation  
Precipitation 0.05 in - - ()
Sea Level Pressure  
Sea Level Pressure 29.70 in    
Wind  
Wind Speed 19 mph (SSW)    
Max Wind Speed 32 mph    
Max Gust Speed 39 mph    
Visibility 6 miles    
Events Rain , Thunderstorm    
Averages and records for this station are not official NWS values.
T = Trace of Precipitation, MM = Missing Value Source: NWS Daily Summary

Daily Weather History Graph

Daily Weather History Graph

Search for Another Location

Airport or City:

Trip Planner

Search our weather history database for the weather conditions in past years. The results will help you decide how hot, cold, wet, or windy it might be!

Date:

Astronomy

Mar. 09, 2013 Rise Set
Actual Time 6:55 AM CST 6:39 PM CST
Civil Twilight 6:30 AM CST 7:04 PM CST
Nautical Twilight 6:00 AM CST 7:34 PM CST
Astronomical Twilight 5:31 AM CST 8:03 PM CST
Moon 5:16 AM CST (3/9) 4:46 PM CST (3/9)
Length of Visible Light 12h 34m
Length of Day
11h 44m
Waning Crescent, 5% of the Moon is Illuminated
Mar 9
Waning Crescent
Mar 11
New
Mar 19
First Quarter
Mar 27
Full
Apr 2
Last Quarter

Hourly Weather History & Observations

Time (CST) Temp. Windchill Dew Point Humidity Pressure Visibility Wind Dir Wind Speed Gust Speed Precip Events Conditions
12:53 AM 57.9 °F - 55.9 °F 93% 29.83 in 4.0 mi SSE 18.4 mph 26.5 mph 0.00 in Rain Light Rain
1:27 AM 57.2 °F - 55.4 °F 94% 29.84 in 3.0 mi SSE 19.6 mph - 0.00 in Rain Light Rain
1:53 AM 57.9 °F - 57.0 °F 97% 29.81 in 3.0 mi SSE 17.3 mph - 0.00 in Rain Light Rain
2:24 AM 57.2 °F - 57.2 °F 100% 29.83 in 2.5 mi SSE 17.3 mph - 0.00 in Rain Light Rain
2:53 AM 57.9 °F - 57.0 °F 97% 29.78 in 2.5 mi SSE 18.4 mph - 0.00 in Rain Light Rain
3:19 AM 57.2 °F - 57.2 °F 100% 29.80 in 3.0 mi SSE 19.6 mph - 0.01 in Rain Light Rain
3:53 AM 57.0 °F - 55.9 °F 96% 29.75 in 3.0 mi SSE 20.7 mph - 0.01 in Rain Light Rain
4:53 AM 57.0 °F - 55.9 °F 96% 29.74 in 5.0 mi SSE 21.9 mph - 0.01 in Rain Light Rain
5:53 AM 57.0 °F - 55.9 °F 96% 29.72 in 5.0 mi SSE 23.0 mph - 0.00 in Rain Light Rain
6:53 AM 57.0 °F - 55.9 °F 96% 29.72 in 5.0 mi SSE 23.0 mph 31.1 mph 0.00 in Rain Light Rain
7:39 AM 57.2 °F - 55.4 °F 94% 29.74 in 2.5 mi SSE 21.9 mph - 0.00 in   Overcast
8:03 AM 57.2 °F - 55.4 °F 94% 29.73 in 3.0 mi South 24.2 mph 32.2 mph N/A   Overcast
8:53 AM 57.0 °F - 55.9 °F 96% 29.70 in 4.0 mi South 26.5 mph 32.2 mph 0.00 in   Overcast
9:53 AM 57.9 °F - 57.0 °F 97% 29.68 in 5.0 mi South 25.3 mph 33.4 mph N/A   Overcast
10:31 AM 59.0 °F - 57.2 °F 94% 29.70 in 6.0 mi South 20.7 mph 31.1 mph N/A   Overcast
10:53 AM 59.0 °F - 57.0 °F 93% 29.67 in 6.0 mi South 19.6 mph - N/A   Overcast
11:06 AM 59.0 °F - 57.2 °F 94% 29.71 in 4.0 mi SSW 18.4 mph 31.1 mph 0.00 in Rain , Thunderstorm Light Rain
11:12 AM 57.2 °F - 53.6 °F 88% 29.73 in 4.0 mi SW 17.3 mph 34.5 mph 0.01 in Rain , Thunderstorm Thunderstorms and Rain
11:14 AM 55.4 °F - 53.6 °F 94% 29.72 in 3.0 mi SW 15.0 mph 34.5 mph 0.02 in Rain , Thunderstorm Thunderstorms and Rain
11:26 AM 55.4 °F - 53.6 °F 94% 29.72 in 5.0 mi SW 10.4 mph - 0.02 in Rain , Thunderstorm Light Rain
11:48 AM 59.0 °F - 55.4 °F 88% 29.72 in 10.0 mi SSW 10.4 mph - 0.02 in   Mostly Cloudy
11:53 AM 62.1 °F - 55.9 °F 80% 29.68 in 10.0 mi SSW 12.7 mph - 0.02 in   Mostly Cloudy
12:53 PM 64.9 °F - 42.1 °F 43% 29.64 in 10.0 mi WSW 23.0 mph 33.4 mph 0.01 in   Mostly Cloudy
1:53 PM 68.0 °F - 37.9 °F 33% 29.60 in 10.0 mi WSW 32.2 mph 38.0 mph N/A   Mostly Cloudy
2:53 PM 68.0 °F - 35.1 °F 30% 29.58 in 10.0 mi WSW 28.8 mph 39.1 mph N/A   Mostly Cloudy
3:53 PM 68.0 °F - 37.0 °F 32% 29.60 in 10.0 mi WSW 27.6 mph 33.4 mph N/A   Overcast
4:53 PM 64.9 °F - 33.1 °F 31% 29.60 in 10.0 mi WSW 20.7 mph 27.6 mph N/A   Partly Cloudy
5:53 PM 61.0 °F - 35.1 °F 38% 29.60 in 10.0 mi WSW 12.7 mph - N/A   Mostly Cloudy
6:53 PM 59.0 °F - 30.0 °F 33% 29.61 in 10.0 mi SW 16.1 mph - N/A   Partly Cloudy
7:53 PM 55.9 °F - 28.9 °F 36% 29.64 in 10.0 mi WSW 9.2 mph - N/A   Clear
8:53 PM 55.0 °F - 28.9 °F 37% 29.66 in 10.0 mi SW 9.2 mph - N/A   Clear
9:53 PM 54.0 °F - 28.0 °F 37% 29.66 in 10.0 mi WSW 12.7 mph - N/A   Clear
10:53 PM 46.0 °F 39.0 °F 36.0 °F 68% 29.70 in 10.0 mi NNW 17.3 mph - N/A   Clear
11:53 PM 43.0 °F 36.0 °F 35.1 °F 74% 29.75 in 10.0 mi NW 13.8 mph - N/A   Clear